# Land Stadt Wetter Temperatur Luftdruck Luftfeuchtigkeit Sichtweite Windgeschwindigkeit Windrichtung Ortszeit
1 kr Seoul Clouds 29 1006 51 10000 13 40 02.08.2018 14:21
2 bg Warna Clear 18 1017 93 10000 10 26 02.08.2018 14:21
3 jp Nagasaki Clouds 26 1007 88 10000 4 0 02.08.2018 14:21
4 mg Antananarivo Clouds 13 1024 87 10000 15 130 02.08.2018 14:21
5 de Trier Clear 9 1022 93 10000 5 356 02.08.2018 14:21
6 de München Rain 15 1020 96 0 12 318 02.08.2018 14:21
7 de Hamburg Clouds 10 1020 93 10000 13 230 02.08.2018 14:21
8 au Alice Springs Clear 17 1022 39 10000 17 190 02.08.2018 14:21
9 fj Suva Rain 24 1013 83 10000 24 120 02.08.2018 14:21
10 de Berlin Clouds 12 1020 87 10000 9 270 02.08.2018 14:21
11 bg Sofia Clear 16 1019 77 10000 11 130 02.08.2018 14:21
12 fi Rovaniemi Clouds 8 1007 100 10000 13 330 02.08.2018 14:21
13 gb Glasgow Clouds 10 1023 87 10000 11 260 02.08.2018 14:21
14 cn Shanghai Clouds 27 1005 94 8000 11 110 02.08.2018 14:21
15 vn Hanoi Clouds 33 1003 52 10000 15 270 02.08.2018 14:21
16 au Perth Clear 15 1028 47 10000 22 50 02.08.2018 14:21
17 pg Port Moresby Clouds 28 1009 74 0 23 155 02.08.2018 14:21
18 it Mailand Rain 22 1013 88 10000 8 280 02.08.2018 14:21
19 de Emden Rain 11 1021 93 0 5 253 02.08.2018 14:21
20 de Hiddensee Clear 11 1021 90 0 36 285 02.08.2018 14:21
21 de Flensburg Clear 10 1017 87 10000 18 280 02.08.2018 14:21
22 gb Manchester Clouds 11 1024 87 10000 4 0 02.08.2018 14:21
23 ph Manila Clouds 33 1008 70 10000 15 280 02.08.2018 14:21
24 fr Bordeaux Clear 16 1021 87 10000 9 10 02.08.2018 14:21
25 de Köln Clouds 11 1022 93 10000 4 60 02.08.2018 14:21
26 us Las Vegas Clouds 38 1013 9 16093 18 280 02.08.2018 14:21
27 de Kassel Rain 9 1021 93 10000 5 0 02.08.2018 14:21
28 ua Kiew Clear 22 1019 64 10000 7 150 02.08.2018 14:21
29 fi Helsinki Rain 13 1003 93 8000 13 40 02.08.2018 14:21
30 mx Mexiko Stadt Clouds 19 1029 55 14484 18 20 02.08.2018 14:21
31 ie Dublin Clouds 8 1026 93 10000 8 250 02.08.2018 14:21
32 es Las Palmas de Gran Canaria Clouds 21 1011 73 10000 42 10 02.08.2018 14:21
33 sa Riad Clear 34 1004 14 10000 15 310 02.08.2018 14:21
34 ae Dubai Clear 36 996 22 10000 8 100 02.08.2018 14:21
35 af Kabul Clear 26 1012 16 10000 11 220 02.08.2018 14:21
36 us Tucson Clear 36 1014 22 16093 18 300 02.08.2018 14:21
37 mx Veracruz Clouds 30 1016 83 9656 9 50 02.08.2018 14:21
38 de Braunschweig Clear 9 1018 55 0 9 261 02.08.2018 14:21
39 es Tarifa Clear 23 1013 88 10000 15 50 02.08.2018 14:21
40 do Santo Domingo Clouds 27 1020 100 0 6 19 02.08.2018 14:21
41 br Manaus Clouds 25 1013 78 10000 4 340 02.08.2018 14:21
42 th Bangkok Clouds 33 1006 54 0 5 256 02.08.2018 14:21
43 in Nagpur Haze 28 1006 78 3000 15 280 02.08.2018 14:21
44 us Denver Clouds 24 1023 17 16093 5 210 02.08.2018 14:21
45 de Oberstdorf Rain 14 1019 90 0 7 308 02.08.2018 14:21
46 de Hannover Clear 10 1021 87 10000 8 260 02.08.2018 14:21
47 de Nürnberg Rain 14 1019 87 10000 9 360 02.08.2018 14:21
48 de Helgoland Clouds 11 1019 81 10000 13 310 02.08.2018 14:22
49 de Torfhaus Clouds 10 1020 96 0 5 269 02.08.2018 14:22
50 es Barcelona Clear 23 1016 64 10000 11 320 02.08.2018 14:22
51 pt Lissabon Clear 18 1012 82 10000 24 310 02.08.2018 14:22
52 za Kapstadt Rain 11 1015 58 10000 18 220 02.08.2018 14:22
53 ca Montreal Clouds 27 1009 69 14484 13 130 02.08.2018 14:22
54 eg Kairo Clouds 25 1010 73 10000 17 360 02.08.2018 14:22
55 bo Potisi Clear 0 1018 60 0 6 266 02.08.2018 14:22
56 in Jagatsukh Clear 23 1005 43 0 10 202 02.08.2018 14:22
57 ru Werchojansk Clouds 27 1011 24 0 9 97 02.08.2018 14:22
58 gl Nuuk Clouds 6 1013 87 0 13 20 02.08.2018 14:22
59 ru Moskau Clouds 18 1019 55 10000 14 180 02.08.2018 14:22
60 gr Athen Clear 23 1011 50 10000 18 330 02.08.2018 14:22
61 no Hammerfest Clouds 8 1007 93 10000 17 220 02.08.2018 14:22
62 uy Montevideo Clouds 9 1013 81 10000 22 240 02.08.2018 14:22
63 ar Ushuaia Clouds 0 986 94 10000 5 320 02.08.2018 14:22
64 au Darwin Clouds 33 1010 31 10000 15 60 02.08.2018 14:22
65 id Jakarta Haze 33 1009 55 5000 21 50 02.08.2018 14:22
66 in Mumbai Haze 30 1005 84 3000 22 220 02.08.2018 14:22
67 cn Lhasa Rain 21 1002 40 0 4 183 02.08.2018 14:22
68 iq Bagdad Clear 34 999 23 10000 15 340 02.08.2018 14:22
69 ke Nairobi Clear 10 1022 93 10000 9 300 02.08.2018 14:22
70 at Wien Clouds 20 1016 82 10000 13 350 02.08.2018 14:22
71 it Palermo Clear 24 999 76 0 2 267 02.08.2018 14:22
72 is Reykjavik Clouds 10 1011 81 10000 13 90 02.08.2018 14:22
73 ru Jakutsk Clouds 23 1009 56 10000 4 120 02.08.2018 14:22
74 jp Tokio Rain 29 1005 79 10000 26 210 02.08.2018 14:22
75 br Rio de Janeiro Clear 18 1020 77 10000 8 100 02.08.2018 14:22
76 ar Esquel Snow 2 1004 87 0 23 303 02.08.2018 14:22
77 bo La Paz Clear 0 1037 61 10000 5 20 02.08.2018 14:22
78 ec San Cristobal Clouds 19 1015 89 0 18 148 02.08.2018 14:22
79 de Stuttgart Rain 15 1020 87 10000 15 340 02.08.2018 14:22
80 bs Nassau Thunderstorm 28 1017 83 10000 15 230 02.08.2018 14:22
81 us Honolulu Clouds 26 1016 54 16093 22 70 02.08.2018 14:22
82 de Bremen Clouds 10 1021 100 10000 4 0 02.08.2018 14:22
83 de Frankfurt Clouds 13 1021 71 10000 11 10 02.08.2018 14:22
84 de Dresden Clouds 13 1020 87 10000 4 0 02.08.2018 14:22
85 de Freiburg Rain 15 1020 87 0 6 312 02.08.2018 14:22
86 ad Andorra la Vella Clear 13 1019 72 0 4 1 02.08.2018 14:22
87 de Magdeburg Clear 10 1020 88 0 3 252 02.08.2018 14:22
88 tr Alanya Clear 21 1012 56 7000 8 270 02.08.2018 14:22
89 us Los Angeles Clear 22 1014 68 16093 8 230 02.08.2018 14:22
90 us Death Valley Clear 38 1012 10 0 10 211 02.08.2018 14:22
91 es Palma de Mallorca Clear 23 1015 88 10000 22 50 02.08.2018 14:22
92 es Sevilla Clear 23 1011 64 10000 8 30 02.08.2018 14:22
93 fr Paris Clear 12 1023 81 10000 8 290 02.08.2018 14:22
94 sb Honiara Rain 24 1008 100 0 22 110 02.08.2018 14:22
95 ck Avarua Rain 24 1015 78 10000 8 150 02.08.2018 14:22
96 ar Buenos Aires Clouds 8 1015 76 10000 9 220 02.08.2018 14:22
97 fr Nizza Clouds 21 1013 78 10000 9 330 02.08.2018 14:22
98 us New York Rain 23 1003 94 16093 9 200 02.08.2018 14:22
99 au Sydney Clouds 15 1014 87 10000 13 310 02.08.2018 14:22
100 gb London Clouds 12 1024 71 10000 11 290 02.08.2018 14:22
101 ma Casablanca Mist 19 1011 100 4800 5 70 02.08.2018 14:23
102 ma Marrakesch Clouds 24 1011 53 8000 9 280 02.08.2018 14:23
103 ch Andermatt Rain 7 1032 99 0 8 104 02.08.2018 14:23
104 ch Bern Rain 16 1020 100 10000 9 110 02.08.2018 14:23
105 at Innsbruck Rain 14 1017 100 10000 2 0 02.08.2018 14:23
106 it Rom Clouds 20 1015 68 10000 5 340 02.08.2018 14:23
107 tr Ankara Clear 17 1017 48 10000 2 0 02.08.2018 14:23
108 tr Istanbul Clouds 23 1014 69 10000 21 40 02.08.2018 14:23
109 et Addis Abeba Clouds 13 1026 87 10000 4 20 02.08.2018 14:23
110 ru Amderma Clouds 11 1006 68 0 28 93 02.08.2018 14:23
111 ru Surgut Clear 23 1007 49 10000 18 260 02.08.2018 14:23
112 mn Ulaanbaatar Clouds 19 1006 55 10000 11 270 02.08.2018 14:23
113 mn Uliastai Clear 22 1001 28 0 3 221 02.08.2018 14:23
114 us Chicago Clouds 25 1012 57 16093 13 300 02.08.2018 14:23
115 cl Santiago Mist 8 1020 93 4700 4 140 02.08.2018 14:23
116 us Miami Clouds 28 1016 83 16093 11 210 02.08.2018 14:23
117 us Nome Clear 21 1009 43 16093 28 280 02.08.2018 14:23
118 us Fairbanks Clear 18 1008 37 16093 18 40 02.08.2018 14:23
119 cn Peking Clouds 26 1002 86 0 5 90 02.08.2018 14:23
120 mv Male Clouds 29 1008 89 10000 13 190 02.08.2018 14:23
121 no Oslo Clouds 10 990 1 0 4 320 02.08.2018 14:23
122 se Stockholm Rain 12 1005 93 10000 8 320 02.08.2018 14:23
123 ru Anadyr Clouds 17 1014 72 10000 18 110 02.08.2018 14:23
124 qa Doha Clear 35 997 59 10000 11 20 02.08.2018 14:23
125 nz Wellington Clear 11 1016 66 10000 31 360 02.08.2018 14:23
126 cd Kisangani Rain 21 1012 95 0 4 275 02.08.2018 14:23
127 pe Cusco Clear 8 1021 68 0 4 314 02.08.2018 14:23
128 es Madrid Clear 22 1017 60 10000 2 30 02.08.2018 14:23